1491336000.7,29729,14.94,73876.5,-2.01,-2.91,-2.95,0,*50
1491336001.89,29730,14.94,73872.8,-2.01,-2.91,-2.91,0,*5C
1491336003.09,29731,14.94,73872.3,-2.05,-2.87,-2.95,0,*5A
1491336004.29,29732,14.94,73872.5,-2.05,-2.87,-2.87,0,*5A
1491336005.48,29733,14.94,73872.5,-2.05,-2.87,-2.87,0,*5B
1491336006.68,29734,14.94,73872.8,-2.05,-2.87,-2.87,0,*5C
1491336007.9,29735,14.94,73872.3,-2.07,-2.87,-2.95,0,*5C
1491336009.1,29736,14.94,73870.0,-2.05,-2.87,-2.87,0,*5E
1491336010.29,29737,14.94,73870.0,-2.05,-2.87,-2.87,0,*5F
1491336011.49,29738,14.94,73868.5,-2.05,-2.87,-2.87,0,*50
1491336012.69,29739,14.94,73866.5,-2.05,-2.87,-2.83,0,*55
1491336013.88,29740,14.94,73866.5,-2.05,-2.83,-2.83,0,*5F
1491336015.08,29741,14.94,73866.3,-2.05,-2.83,-2.95,0,*59
1491336016.28,29742,14.94,73862.8,-2.05,-2.95,-2.95,0,*5D
1491336017.48,29743,14.94,73864.0,-2.05,-2.87,-2.87,0,*5C
1491336018.67,29744,14.94,73866.0,-2.05,-2.87,-2.83,0,*5F
1491336019.87,29745,14.94,73862.5,-2.05,-2.83,-2.83,0,*5A
1491336021.06,29746,14.94,73864.0,-2.05,-2.87,-2.87,0,*59
1491336022.26,29747,14.94,73862.0,-2.05,-2.87,-2.87,0,*58
1491336023.45,29748,14.94,73866.3,-2.05,-2.87,-2.87,0,*57
1491336024.65,29749,14.94,73864.0,-2.05,-2.87,-2.87,0,*56
1491336025.85,29750,14.94,73864.8,-2.05,-2.87,-2.87,0,*5E
1491336027.08,29751,14.94,73864.3,-2.07,-2.95,-2.95,0,*5D
1491336028.28,29752,14.94,73862.0,-2.05,-2.87,-2.95,0,*5F
1491336029.48,29753,14.94,73868.0,-2.05,-2.87,-2.83,0,*59
1491336030.67,29754,14.94,73868.8,-2.05,-2.83,-2.83,0,*5A
1491336031.86,29755,14.94,73870.8,-2.05,-2.83,-2.87,0,*5F
1491336033.07,29756,14.94,73866.0,-2.05,-2.95,-2.95,0,*58
1491336034.26,29757,14.94,73866.3,-2.01,-2.79,-2.83,0,*58
1491336035.45,29758,14.94,73868.3,-2.01,-2.79,-2.83,0,*57
1491336036.65,29759,14.94,73868.3,-2.05,-2.83,-2.87,0,*53
1491336037.84,29760,14.94,73866.0,-2.05,-2.83,-2.87,0,*59
1491336039.05,29761,14.94,73866.8,-2.05,-2.95,-2.95,0,*5C
1491336040.24,29762,14.94,73866.3,-2.05,-2.87,-2.95,0,*5C
1491336041.48,29763,14.94,73864.5,-2.07,-2.95,-2.99,0,*50
1491336042.68,29764,14.94,73868.5,-2.05,-2.95,-3.07,0,*53
1491336043.88,29765,14.94,73870.0,-2.05,-2.87,-2.95,0,*5B
1491336045.1,29766,14.94,73870.0,-2.07,-2.87,-2.87,0,*59
1491336046.3,29767,14.94,73866.3,-2.05,-2.87,-2.95,0,*59
1491336047.5,29768,14.94,73864.5,-2.05,-2.95,-2.87,0,*56
1491336048.7,29769,14.94,73864.5,-2.05,-2.87,-2.87,0,*54
1491336049.92,29770,14.94,73866.3,-2.07,-2.83,-2.87,0,*5A
1491336051.12,29771,14.94,73864.3,-2.05,-2.87,-2.95,0,*5E
1491336052.35,29772,14.94,73868.8,-2.07,-2.87,-2.87,0,*5C
1491336053.54,29773,14.94,73868.8,-2.05,-2.87,-2.87,0,*5F
1491336054.73,29774,14.94,73866.3,-2.05,-2.87,-2.87,0,*58
1491336055.96,29775,14.94,73866.8,-2.07,-2.87,-2.95,0,*58
1491336057.16,29776,14.94,73868.3,-2.05,-2.87,-2.87,0,*5A
1491336058.35,29777,14.94,73868.5,-2.05,-2.83,-2.83,0,*5B
1491336059.54,29778,14.94,73870.0,-2.05,-2.83,-2.87,0,*50
1491336060.74,29779,14.94,73868.8,-2.05,-2.83,-2.87,0,*51
1491336061.93,29780,14.94,73864.5,-2.05,-2.83,-2.95,0,*54
1491336063.16,29781,14.94,73866.5,-2.07,-2.83,-2.95,0,*57
1491336064.35,29782,14.94,73866.0,-2.05,-2.87,-2.87,0,*51
1491336065.55,29783,14.94,73862.8,-2.05,-2.87,-2.87,0,*50
1491336066.77,29784,14.94,73866.5,-2.07,-2.83,-2.83,0,*55
1491336067.99,29785,14.94,73864.5,-2.07,-2.83,-2.87,0,*50
1491336069.21,29786,14.94,73866.8,-2.07,-2.83,-2.87,0,*53
1491336070.43,29787,14.94,73866.5,-2.07,-2.83,-2.87,0,*52
1491336071.62,29788,14.94,73864.5,-2.05,-2.79,-2.83,0,*5E
1491336072.82,29789,14.94,73864.3,-2.05,-2.79,-2.83,0,*5F
1491336074.02,29790,14.94,73866.5,-2.05,-2.79,-2.83,0,*57
1491336075.21,29791,14.94,73866.3,-2.05,-2.83,-2.83,0,*53
1491336076.41,29792,14.94,73868.0,-2.05,-2.79,-2.83,0,*55
1491336077.6,29793,14.94,73870.3,-2.05,-2.83,-2.83,0,*51
1491336078.79,29794,14.94,73864.3,-2.05,-2.87,-2.87,0,*56
1491336079.99,29795,14.94,73866.8,-2.05,-2.87,-2.87,0,*57
1491336081.19,29796,14.94,73866.8,-2.05,-2.87,-2.87,0,*54
1491336082.38,29797,14.94,73864.8,-2.05,-2.87,-2.87,0,*55
1491336083.58,29798,14.94,73862.0,-2.05,-2.87,-2.87,0,*5A
1491336084.78,29799,14.94,73866.0,-2.05,-2.87,-2.95,0,*58
1491336085.98,29800,14.94,73864.0,-2.05,-2.87,-2.95,0,*57
1491336087.21,29801,14.94,73868.0,-2.07,-2.95,-2.95,0,*57
1491336088.41,29802,14.94,73864.0,-2.05,-2.87,-2.95,0,*55
1491336089.61,29803,14.94,73866.3,-2.05,-2.95,-2.87,0,*54
1491336090.81,29804,14.94,73866.0,-2.05,-2.87,-2.87,0,*50
1491336092.03,29805,14.94,73866.5,-2.07,-2.87,-2.87,0,*53
1491336093.23,29806,14.94,73864.5,-2.05,-2.87,-2.87,0,*52
1491336094.42,29807,14.94,73864.5,-2.05,-2.87,-2.87,0,*53
1491336095.62,29808,14.94,73864.8,-2.05,-2.87,-2.95,0,*5F
1491336096.82,29809,14.94,73862.5,-2.05,-2.87,-2.87,0,*5D
1491336098.05,29810,14.94,73864.3,-2.07,-2.95,-2.87,0,*54
1491336099.24,29811,14.94,73864.8,-2.05,-2.87,-2.87,0,*54
1491336100.46,29812,14.94,73868.8,-2.07,-2.83,-2.87,0,*51
1491336101.66,29813,14.94,73870.5,-2.05,-2.79,-2.83,0,*53
1491336102.85,29814,14.94,73864.8,-2.05,-2.83,-2.83,0,*51
1491336104.08,29815,14.94,73864.5,-2.07,-2.79,-2.83,0,*57
1491336105.3,29816,14.94,73876.3,-2.07,-2.83,-2.83,0,*51
1491336106.49,29817,14.94,73864.0,-2.05,-2.83,-2.83,0,*52
1491336107.71,29818,14.94,73866.3,-2.07,-2.83,-2.95,0,*58
1491336108.91,29819,14.94,73864.0,-2.05,-2.83,-2.87,0,*58
1491336110.1,29820,14.94,73866.5,-2.05,-2.83,-2.79,0,*53
1491336111.29,29821,14.94,73864.8,-2.05,-2.79,-2.83,0,*52
1491336112.51,29822,14.94,73864.3,-2.07,-2.83,-2.83,0,*56
1491336113.76,29823,14.94,73868.8,-2.07,-2.71,-2.83,0,*5A
1491336115.01,29824,14.94,73868.5,-2.07,-2.71,-2.79,0,*58
1491336116.23,29825,14.94,73872.8,-2.05,-2.71,-2.83,0,*5E
1491336117.42,29826,14.94,73868.3,-2.05,-2.83,-2.83,0,*50
1491336118.62,29827,14.94,73870.0,-2.05,-2.79,-2.83,0,*54
1491336119.86,29828,14.94,73870.5,-2.01,-2.75,-2.75,0,*5A
1491336121.06,29829,14.94,73868.8,-2.05,-2.79,-2.79,0,*5F
1491336122.25,29830,14.94,73866.0,-2.05,-2.79,-2.83,0,*52
1491336123.47,29831,14.94,73870.3,-2.05,-2.71,-2.83,0,*5B
1491336124.73,29832,14.94,73866.8,-2.05,-2.71,-2.71,0,*55
1491336125.97,29833,14.94,73866.3,-2.01,-2.67,-2.75,0,*53
1491336127.19,29834,14.94,73864.0,-2.05,-2.75,-2.79,0,*5F
1491336128.38,29835,14.94,73864.3,-2.05,-2.79,-2.79,0,*52
1491336129.63,29836,14.94,73864.8,-2.05,-2.67,-2.71,0,*56
1491336130.88,29837,14.94,73864.0,-2.01,-2.63,-2.63,0,*54
1491336132.13,29838,14.94,73860.0,-2.05,-2.67,-2.71,0,*58
1491336133.38,29839,14.94,73860.5,-2.05,-2.71,-2.71,0,*5E
1491336134.63,29840,14.94,73862.8,-2.05,-2.67,-2.71,0,*57
1491336135.88,29841,14.94,73862.5,-2.01,-2.67,-2.67,0,*55
1491336137.12,29842,14.94,73862.0,-2.01,-2.63,-2.67,0,*52
1491336138.4,29843,14.94,73862.3,-1.99,-2.67,-2.67,0,*55
1491336139.64,29844,14.94,73862.0,-2.01,-2.67,-2.67,0,*50
1491336140.89,29845,14.94,73862.5,-2.01,-2.67,-2.67,0,*51
1491336142.13,29846,14.94,73870.0,-2.01,-2.67,-2.63,0,*56
1491336143.38,29847,14.94,73862.3,-2.01,-2.67,-2.67,0,*53
1491336144.65,29848,14.94,73864.8,-1.99,-2.67,-2.67,0,*5E
1491336145.9,29849,14.94,73862.5,-2.01,-2.63,-2.67,0,*59
1491336147.14,29850,14.94,73856.3,-2.01,-2.67,-2.67,0,*55
1491336148.39,29851,14.94,73862.8,-2.01,-2.63,-2.67,0,*50
1491336149.66,29852,14.94,73866.8,-1.99,-2.67,-2.75,0,*56
1491336150.93,29853,14.94,73860.0,-1.99,-2.67,-2.75,0,*57
1491336152.18,29854,14.94,73860.0,-2.01,-2.75,-2.75,0,*51
1491336153.43,29855,14.94,73866.8,-1.99,-2.79,-2.75,0,*5E
1491336154.64,29856,14.94,73864.5,-2.01,-2.67,-2.79,0,*5C
1491336155.91,29857,14.94,73860.5,-1.99,-2.67,-2.75,0,*53
1491336157.16,29858,14.94,73866.5,-2.01,-2.75,-2.63,0,*5A
1491336158.41,29859,14.94,73866.0,-2.01,-2.75,-2.67,0,*5F
1491336159.68,29860,14.94,73858.0,-1.99,-2.67,-2.67,0,*54
1491336160.93,29861,14.94,73860.8,-2.01,-2.63,-2.67,0,*53
1491336162.2,29862,14.94,73864.8,-1.99,-2.67,-2.67,0,*56
1491336163.44,29863,14.94,73862.5,-2.01,-2.67,-2.75,0,*56
1491336164.72,29864,14.94,73860.3,-1.99,-2.75,-2.75,0,*50
1491336165.93,29865,14.94,73862.3,-2.01,-2.75,-2.79,0,*5F
1491336167.18,29866,14.94,73862.3,-1.99,-2.75,-2.79,0,*5E
1491336168.41,29867,14.94,73864.5,-1.99,-2.67,-2.79,0,*5C
1491336169.66,29868,14.94,73862.0,-1.99,-2.75,-2.79,0,*50
1491336170.9,29869,14.94,73860.5,-2.01,-2.75,-2.75,0,*5F
1491336172.18,29870,14.94,73862.8,-1.99,-2.67,-2.75,0,*56
1491336173.42,29871,14.94,73862.5,-1.99,-2.75,-2.79,0,*58
1491336174.63,29872,14.94,73866.3,-1.99,-2.79,-2.79,0,*57
1491336175.91,29873,14.94,73866.0,-1.99,-2.67,-2.75,0,*55
1491336177.18,29874,14.94,73862.0,-1.99,-2.67,-2.67,0,*51
1491336178.45,29875,14.94,73858.8,-1.99,-2.67,-2.67,0,*50
1491336179.72,29876,14.94,73860.3,-1.99,-2.67,-2.75,0,*50
1491336180.99,29877,14.94,73862.8,-1.99,-2.67,-2.75,0,*51
1491336182.26,29878,14.94,73866.8,-1.99,-2.67,-2.67,0,*5D
1491336183.53,29879,14.94,73866.8,-1.99,-2.67,-2.67,0,*5C
1491336184.78,29880,14.94,73860.8,-1.97,-2.75,-2.71,0,*50
1491336186.05,29881,14.94,73862.0,-1.99,-2.75,-2.75,0,*5B
1491336187.32,29882,14.94,73870.5,-1.99,-2.67,-2.67,0,*58
1491336188.57,29883,14.94,73872.0,-1.97,-2.59,-2.63,0,*5E
1491336189.81,29884,14.94,73870.8,-1.97,-2.71,-2.75,0,*54
1491336191.06,29885,14.94,73866.8,-1.97,-2.71,-2.71,0,*51
1491336192.3,29886,14.94,73862.0,-1.97,-2.71,-2.75,0,*56
1491336193.54,29887,14.94,73862.8,-1.97,-2.75,-2.75,0,*53
1491336194.79,29888,14.94,73856.5,-1.97,-2.75,-2.71,0,*58
1491336196.03,29889,14.94,73866.0,-1.97,-2.75,-2.75,0,*5D
1491336197.25,29890,14.94,73866.5,-1.99,-2.79,-2.79,0,*5B
1491336198.47,29891,14.94,73866.0,-1.99,-2.79,-2.79,0,*5A
1491336199.72,29892,14.94,73864.8,-1.99,-2.79,-2.75,0,*55
1491336200.99,29893,14.94,73862.8,-1.99,-2.75,-2.75,0,*58
1491336202.26,29894,14.94,73866.3,-1.99,-2.75,-2.67,0,*5C
1491336203.54,29895,14.94,73864.0,-1.99,-2.75,-2.75,0,*5E
1491336204.81,29896,14.94,73866.0,-1.99,-2.63,-2.75,0,*5A
1491336206.08,29897,14.94,73862.5,-1.99,-2.67,-2.75,0,*5F
1491336207.33,29898,14.94,73866.0,-1.99,-2.79,-2.67,0,*5C
1491336208.55,29899,14.94,73866.5,-1.99,-2.79,-2.79,0,*52
1491336209.82,29900,14.94,73866.0,-1.99,-2.75,-2.75,0,*53
1491336211.07,29901,14.94,73864.0,-1.97,-2.71,-2.75,0,*58
1491336212.31,29902,14.94,73864.5,-1.97,-2.71,-2.71,0,*5F
1491336213.56,29903,14.94,73866.8,-1.97,-2.63,-2.71,0,*5D
1491336214.81,29904,14.94,73866.3,-1.97,-2.71,-2.71,0,*59
1491336216.05,29905,14.94,73868.3,-1.97,-2.75,-2.71,0,*5C
1491336217.3,29906,14.94,73864.5,-1.97,-2.75,-2.75,0,*5B
1491336218.54,29907,14.94,73864.8,-1.97,-2.71,-2.75,0,*5E
1491336219.79,29908,14.94,73864.5,-1.97,-2.63,-2.71,0,*56
1491336221.03,29909,14.94,73864.5,-1.97,-2.71,-2.71,0,*54
1491336222.27,29910,14.94,73864.5,-1.97,-2.59,-2.63,0,*55
1491336223.52,29911,14.94,73866.8,-1.97,-2.63,-2.63,0,*5D
1491336224.79,29912,14.94,73864.3,-1.95,-2.59,-2.59,0,*5C
1491336226.04,29913,14.94,73862.8,-1.97,-2.63,-2.71,0,*5C
1491336227.31,29914,14.94,73864.5,-1.95,-2.71,-2.75,0,*5E
1491336228.56,29915,14.94,73862.8,-1.97,-2.63,-2.71,0,*5A
1491336229.8,29916,14.94,73862.0,-1.97,-2.71,-2.71,0,*5A
1491336231.08,29917,14.94,73868.8,-1.95,-2.75,-2.63,0,*5E
1491336232.36,29918,14.94,73860.5,-1.95,-2.63,-2.71,0,*55
1491336233.63,29919,14.94,73860.5,-1.95,-2.63,-2.71,0,*54
1491336234.88,29920,14.94,73868.3,-1.97,-2.63,-2.71,0,*5C
1491336236.16,29921,14.94,73864.5,-1.95,-2.63,-2.63,0,*5C
1491336237.41,29922,14.94,73864.3,-1.97,-2.63,-2.63,0,*5D
1491336238.68,29923,14.94,73866.5,-1.95,-2.59,-2.51,0,*56
1491336239.96,29924,14.94,73868.8,-1.95,-2.63,-2.63,0,*59
1491336241.23,29925,14.94,73866.8,-1.95,-2.63,-2.59,0,*51
1491336242.48,29926,14.94,73862.8,-1.97,-2.63,-2.63,0,*59
1491336243.76,29927,14.94,73870.5,-1.95,-2.63,-2.63,0,*5A
1491336245.04,29928,14.94,73864.0,-1.95,-2.63,-2.71,0,*56
1491336246.31,29929,14.94,73856.5,-1.95,-2.71,-2.75,0,*50
1491336247.56,29930,14.94,73860.3,-1.97,-2.71,-2.75,0,*5A
1491336248.8,29931,14.94,73864.3,-1.97,-2.75,-2.71,0,*5B
1491336250.07,29932,14.94,73862.8,-1.95,-2.75,-2.75,0,*5E
1491336251.32,29933,14.94,73866.5,-1.97,-2.75,-2.75,0,*5D
1491336252.59,29934,14.94,73864.0,-1.95,-2.75,-2.75,0,*58
1491336253.86,29935,14.94,73866.3,-1.95,-2.75,-2.75,0,*59
1491336255.11,29936,14.94,73866.3,-1.97,-2.71,-2.71,0,*58
1491336256.38,29937,14.94,73872.0,-1.95,-2.71,-2.71,0,*5B
1491336257.63,29938,14.94,73870.5,-1.97,-2.71,-2.71,0,*56
1491336258.91,29939,14.94,73870.8,-1.95,-2.63,-2.63,0,*55
1491336260.17,29940,14.94,73868.5,-1.95,-2.59,-2.59,0,*5B
1491336261.44,29941,14.94,73868.8,-1.95,-2.71,-2.59,0,*50
1491336262.72,29942,14.94,73868.3,-1.95,-2.71,-2.71,0,*59
1491336263.99,29943,14.94,73868.0,-1.95,-2.75,-2.75,0,*58
1491336265.26,29944,14.94,73868.5,-1.95,-2.71,-2.75,0,*5B
1491336266.54,29945,14.94,73866.5,-1.95,-2.71,-2.75,0,*5A
1491336267.81,29946,14.94,73868.3,-1.95,-2.75,-2.75,0,*5D
1491336269.05,29947,14.94,73866.5,-1.93,-2.67,-2.71,0,*5D
1491336270.3,29948,14.94,73866.8,-1.93,-2.67,-2.71,0,*52
1491336271.58,29949,14.94,73868.3,-1.95,-2.63,-2.71,0,*51
1491336272.85,29950,14.94,73866.0,-1.95,-2.63,-2.71,0,*59
1491336274.13,29951,14.94,73866.5,-1.95,-2.71,-2.75,0,*5F
1491336275.4,29952,14.94,73868.0,-1.95,-2.71,-2.75,0,*5C
1491336276.68,29953,14.94,73874.3,-1.95,-2.71,-2.71,0,*59
1491336277.95,29954,14.94,73862.5,-1.95,-2.75,-2.75,0,*5E
1491336279.22,29955,14.94,73866.8,-1.95,-2.71,-2.71,0,*5F
1491336280.47,29956,14.94,73868.0,-1.93,-2.55,-2.71,0,*5C
1491336281.71,29957,14.94,73866.0,-1.93,-2.59,-2.67,0,*56
1491336282.95,29958,14.94,73862.8,-1.93,-2.59,-2.59,0,*54
1491336284.2,29959,14.94,73866.0,-1.93,-2.55,-2.59,0,*59
1491336285.44,29960,14.94,73860.0,-1.93,-2.67,-2.59,0,*52
1491336286.68,29961,14.94,73860.5,-1.93,-2.67,-2.71,0,*59
1491336287.95,29962,14.94,73858.8,-1.91,-2.59,-2.71,0,*55
1491336289.22,29963,14.94,73866.5,-1.91,-2.59,-2.59,0,*5E
1491336290.46,29964,14.94,73866.5,-1.93,-2.59,-2.59,0,*5B
1491336291.7,29965,14.94,73860.5,-1.93,-2.55,-2.59,0,*56
1491336292.98,29966,14.94,73860.5,-1.91,-2.71,-2.71,0,*5B
1491336294.22,29967,14.94,73866.5,-1.93,-2.67,-2.71,0,*5F
1491336295.47,29968,14.94,73866.8,-1.93,-2.71,-2.71,0,*57
1491336296.71,29969,14.94,73866.5,-1.93,-2.67,-2.71,0,*51
1491336297.96,29970,14.94,73864.3,-1.93,-2.67,-2.71,0,*59
1491336299.2,29971,14.94,73864.3,-1.93,-2.71,-2.71,0,*5F
1491336300.45,29972,14.94,73862.5,-1.93,-2.67,-2.71,0,*5B
1491336301.69,29973,14.94,73864.5,-1.93,-2.67,-2.67,0,*5D
1491336302.94,29974,14.94,73862.3,-1.93,-2.71,-2.67,0,*5D
1491336304.18,29975,14.94,73868.5,-1.93,-2.59,-2.67,0,*56
1491336305.43,29976,14.94,73866.5,-1.93,-2.67,-2.67,0,*58
1491336306.68,29977,14.94,73866.0,-1.93,-2.71,-2.71,0,*59
1491336307.95,29978,14.94,73866.5,-1.91,-2.67,-2.71,0,*53
1491336309.19,29979,14.94,73868.5,-1.93,-2.71,-2.67,0,*50
1491336310.47,29980,14.94,73864.0,-1.91,-2.67,-2.67,0,*53
1491336311.71,29981,14.94,73866.8,-1.93,-2.59,-2.71,0,*5A
1491336312.95,29982,14.94,73866.0,-1.93,-2.59,-2.67,0,*5E
1491336314.19,29983,14.94,73864.8,-1.93,-2.67,-2.59,0,*5F
1491336315.46,29984,14.94,73868.0,-1.91,-2.59,-2.59,0,*57
1491336316.73,29985,14.94,73862.0,-1.91,-2.67,-2.71,0,*51
1491336318.0,29986,14.94,73862.5,-1.91,-2.67,-2.71,0,*52
1491336319.27,29987,14.94,73866.8,-1.91,-2.59,-2.71,0,*5E
1491336320.52,29988,14.94,73868.8,-1.93,-2.67,-2.71,0,*5E
1491336321.76,29989,14.94,73864.8,-1.93,-2.67,-2.67,0,*58
1491336323.01,29990,14.94,73862.0,-1.93,-2.67,-2.67,0,*50
1491336324.28,29991,14.94,73864.3,-1.91,-2.59,-2.67,0,*5E
1491336325.52,29992,14.94,73864.5,-1.93,-2.55,-2.59,0,*5E
1491336326.77,29993,14.94,73866.3,-1.93,-2.55,-2.55,0,*53
1491336328.04,29994,14.94,73866.5,-1.91,-2.59,-2.59,0,*56
1491336329.3,29995,14.94,73866.3,-1.91,-2.59,-2.59,0,*57
1491336330.57,29996,14.94,73864.3,-1.91,-2.59,-2.59,0,*54
1491336331.84,29997,14.94,73856.5,-1.91,-2.59,-2.71,0,*5F
1491336333.11,29998,14.94,73856.3,-1.91,-2.55,-2.67,0,*5B
1491336334.36,29999,14.94,73858.0,-1.93,-2.67,-2.67,0,*59
1491336335.63,30000,14.94,73862.5,-1.91,-2.67,-2.67,0,*5A
1491336336.9,30001,14.94,73868.8,-1.91,-2.59,-2.67,0,*56
1491336338.17,30002,14.94,73864.3,-1.91,-2.59,-2.59,0,*58
1491336339.44,30003,14.94,73864.3,-1.91,-2.55,-2.59,0,*55
1491336340.71,30004,14.94,73866.0,-1.91,-2.67,-2.67,0,*5E
1491336341.96,30005,14.94,73868.3,-1.89,-2.55,-2.67,0,*57
1491336343.23,30006,14.94,73864.5,-1.91,-2.59,-2.67,0,*51
1491336344.5,30007,14.94,73866.0,-1.91,-2.71,-2.67,0,*5A
1491336345.77,30008,14.94,73868.0,-1.91,-2.67,-2.71,0,*55
1491336347.05,30009,14.94,73870.3,-1.91,-2.71,-2.71,0,*53
1491336348.32,30010,14.94,73870.3,-1.91,-2.59,-2.59,0,*5B
1491336349.56,30011,14.94,73874.3,-1.93,-2.59,-2.67,0,*55
1491336350.83,30012,14.94,73872.3,-1.91,-2.55,-2.59,0,*55
1491336352.1,30013,14.94,73872.0,-1.91,-2.67,-2.59,0,*55
1491336353.36,30014,14.94,73872.0,-1.91,-2.59,-2.59,0,*5F
1491336354.64,30015,14.94,73870.5,-1.91,-2.59,-2.71,0,*54
1491336355.91,30016,14.94,73868.5,-1.91,-2.67,-2.67,0,*5D
1491336357.18,30017,14.94,73872.5,-1.91,-2.67,-2.67,0,*5C
1491336358.45,30018,14.94,73870.0,-1.91,-2.71,-2.71,0,*53
1491336359.72,30019,14.94,73874.8,-1.91,-2.67,-2.67,0,*52
1491336361.0,30020,14.94,73872.8,-1.91,-2.67,-2.67,0,*58
1491336362.27,30021,14.94,73868.5,-1.91,-2.67,-2.67,0,*59
1491336363.54,30022,14.94,73874.0,-1.91,-2.67,-2.71,0,*5D
1491336364.81,30023,14.94,73870.8,-1.91,-2.59,-2.67,0,*56
1491336366.08,30024,14.94,73874.3,-1.91,-2.59,-2.59,0,*5C
1491336367.34,30025,14.94,73878.5,-1.91,-2.59,-2.59,0,*5D
1491336368.61,30026,14.94,73878.5,-1.91,-2.59,-2.59,0,*5E
1491336369.86,30027,14.94,73868.8,-1.89,-2.55,-2.55,0,*56
1491336371.11,30028,14.94,73870.5,-1.89,-2.51,-2.51,0,*59
1491336372.36,30029,14.94,73872.8,-1.89,-2.55,-2.63,0,*5D
1491336373.61,30030,14.94,73874.0,-1.89,-2.63,-2.55,0,*55
1491336374.85,30031,14.94,73876.8,-1.89,-2.51,-2.63,0,*50
1491336376.1,30032,14.94,73876.8,-1.89,-2.55,-2.55,0,*52
1491336377.37,30033,14.94,73874.8,-1.91,-2.59,-2.67,0,*57
1491336378.64,30034,14.94,73876.8,-1.91,-2.67,-2.59,0,*50
1491336379.91,30035,14.94,73872.0,-1.91,-2.67,-2.71,0,*5B
1491336381.16,30036,14.94,73868.0,-1.89,-2.67,-2.67,0,*56
1491336382.4,30037,14.94,73872.0,-1.89,-2.67,-2.67,0,*57
1491336383.65,30038,14.94,73868.0,-1.89,-2.67,-2.67,0,*58
1491336384.9,30039,14.94,73872.3,-1.89,-2.63,-2.63,0,*59
1491336386.14,30040,14.94,73872.3,-1.89,-2.55,-2.63,0,*52
1491336387.41,30041,14.94,73870.8,-1.87,-2.51,-2.59,0,*50
1491336388.66,30042,14.94,73872.5,-1.89,-2.55,-2.63,0,*50
1491336389.9,30043,14.94,73868.3,-1.89,-2.67,-2.67,0,*54
1491336391.16,30044,14.94,73872.5,-1.89,-2.63,-2.63,0,*53
1491336392.41,30045,14.94,73874.3,-1.89,-2.63,-2.63,0,*52
1491336393.68,30046,14.94,73872.3,-1.87,-2.47,-2.51,0,*58
1491336394.93,30047,14.94,73872.3,-1.89,-2.55,-2.55,0,*50
1491336396.18,30048,14.94,73872.0,-1.89,-2.63,-2.63,0,*5F
1491336397.43,30049,14.94,73870.8,-1.89,-2.55,-2.55,0,*5E
1491336398.68,30050,14.94,73870.0,-1.89,-2.55,-2.63,0,*53
1491336399.92,30051,14.94,73874.5,-1.89,-2.67,-2.67,0,*57
1491336401.17,30052,14.94,73870.0,-1.89,-2.67,-2.63,0,*50
1491336402.41,30053,14.94,73870.8,-1.89,-2.55,-2.63,0,*50
1491336403.69,30054,14.94,73872.5,-1.87,-2.63,-2.63,0,*5C
1491336404.93,30055,14.94,73868.3,-1.89,-2.67,-2.67,0,*53
1491336406.18,30056,14.94,73870.5,-1.89,-2.63,-2.67,0,*54
1491336407.44,30057,14.94,73874.5,-1.89,-2.63,-2.63,0,*51
1491336408.71,30058,14.94,73870.8,-1.87,-2.51,-2.47,0,*57
1491336409.95,30059,14.94,73868.3,-1.89,-2.55,-2.63,0,*5A
1491336411.2,30060,14.94,73870.8,-1.89,-2.55,-2.51,0,*51
1491336412.45,30061,14.94,73870.3,-1.89,-2.51,-2.51,0,*54
1491336413.73,30062,14.94,73868.5,-1.87,-2.51,-2.51,0,*59
1491336414.99,30063,14.94,73868.5,-1.87,-2.59,-2.59,0,*58
1491336416.24,30064,14.94,73872.5,-1.89,-2.63,-2.67,0,*55
1491336417.51,30065,14.94,73868.8,-1.87,-2.51,-2.59,0,*56
1491336418.78,30066,14.94,73874.0,-1.87,-2.51,-2.51,0,*5D
1491336420.03,30067,14.94,73874.3,-1.89,-2.63,-2.63,0,*52
1491336421.3,30068,14.94,73874.5,-1.87,-2.63,-2.59,0,*5A
1491336422.55,30069,14.94,73872.5,-1.89,-2.63,-2.63,0,*5C
1491336423.8,30070,14.94,73872.3,-1.85,-2.51,-2.59,0,*50
1491336425.07,30071,14.94,73870.3,-1.87,-2.63,-2.59,0,*52
1491336426.34,30072,14.94,73868.0,-1.87,-2.59,-2.63,0,*51
1491336427.6,30073,14.94,73870.8,-1.87,-2.59,-2.63,0,*50
1491336428.87,30074,14.94,73868.8,-1.87,-2.63,-2.59,0,*57
1491336430.14,30075,14.94,73870.8,-1.87,-2.59,-2.59,0,*5F
1491336431.4,30076,14.94,73868.5,-1.87,-2.59,-2.55,0,*50
1491336432.67,30077,14.94,73868.8,-1.87,-2.59,-2.63,0,*54
1491336433.95,30078,14.94,73870.5,-1.87,-2.63,-2.63,0,*52
1491336435.22,30079,14.94,73870.8,-1.87,-2.63,-2.63,0,*53
1491336436.49,30080,14.94,73868.3,-1.87,-2.59,-2.63,0,*5C
1491336437.76,30081,14.94,73870.0,-1.87,-2.59,-2.63,0,*5D
1491336439.0,30082,14.94,73874.8,-1.89,-2.67,-2.63,0,*5D
1491336440.25,30083,14.94,73872.0,-1.89,-2.63,-2.67,0,*5C
1491336441.53,30084,14.94,73874.0,-1.87,-2.63,-2.63,0,*51
1491336442.8,30085,14.94,73872.0,-1.87,-2.63,-2.63,0,*50
1491336444.05,30086,14.94,73874.8,-1.89,-2.67,-2.67,0,*5D
1491336445.29,30087,14.94,73874.8,-1.89,-2.67,-2.71,0,*5B
1491336446.54,30088,14.94,73872.8,-1.89,-2.67,-2.67,0,*53
1491336447.79,30089,14.94,73864.5,-1.89,-2.63,-2.63,0,*52
1491336449.05,30090,14.94,73864.5,-1.87,-2.51,-2.59,0,*5C
1491336450.31,30091,14.94,73870.0,-1.89,-2.63,-2.63,0,*5B
1491336451.57,30092,14.94,73870.0,-1.87,-2.59,-2.63,0,*5F
1491336452.82,30093,14.94,73872.0,-1.89,-2.63,-2.67,0,*5D
1491336454.1,30094,14.94,73868.8,-1.87,-2.63,-2.63,0,*50
1491336455.37,30095,14.94,73866.3,-1.87,-2.63,-2.51,0,*50
1491336456.62,30096,14.94,73866.3,-1.85,-2.59,-2.59,0,*50
1491336457.87,30097,14.94,73860.8,-1.89,-2.63,-2.67,0,*59
1491336459.14,30098,14.94,73866.3,-1.87,-2.63,-2.63,0,*5C
1491336460.39,30099,14.94,73870.0,-1.89,-2.63,-2.63,0,*53
1491336461.66,30100,14.94,73868.5,-1.87,-2.59,-2.59,0,*5C
1491336462.92,30101,14.94,73872.3,-1.87,-2.59,-2.63,0,*54
1491336464.19,30102,14.94,73868.3,-1.87,-2.59,-2.59,0,*5E
1491336465.43,30103,14.94,73862.8,-1.89,-2.67,-2.67,0,*51
1491336466.71,30104,14.94,73868.5,-1.87,-2.63,-2.63,0,*58
1491336467.97,30105,14.94,73866.3,-1.87,-2.59,-2.63,0,*50
1491336469.22,30106,14.94,73870.5,-1.89,-2.67,-2.67,0,*54
1491336470.49,30107,14.94,73870.0,-1.87,-2.63,-2.63,0,*5B
1491336471.77,30108,14.94,73870.5,-1.87,-2.63,-2.63,0,*54
1491336473.01,30109,14.94,73868.3,-1.89,-2.67,-2.67,0,*5B
1491336474.29,30110,14.94,73868.3,-1.87,-2.63,-2.63,0,*5D
1491336475.56,30111,14.94,73868.8,-1.87,-2.63,-2.63,0,*5C
1491336476.83,30112,14.94,73870.3,-1.87,-2.63,-2.59,0,*56
1491336478.1,30113,14.94,73866.0,-1.87,-2.63,-2.67,0,*5A
1491336479.37,30114,14.94,73872.8,-1.87,-2.67,-2.63,0,*5D
1491336480.64,30115,14.94,73864.3,-1.87,-2.67,-2.63,0,*5C
1491336481.89,30116,14.94,73868.8,-1.89,-2.63,-2.67,0,*51
1491336483.16,30117,14.94,73872.5,-1.87,-2.59,-2.63,0,*53
1491336484.41,30118,14.94,73868.0,-1.89,-2.67,-2.71,0,*5C
1491336485.65,30119,14.94,73868.8,-1.89,-2.71,-2.71,0,*5A
1491336486.93,30120,14.94,73864.8,-1.87,-2.63,-2.63,0,*5E
1491336488.2,30121,14.94,73860.3,-1.87,-2.63,-2.59,0,*56
1491336489.45,30122,14.94,73864.0,-1.89,-2.63,-2.67,0,*56
1491336490.72,30123,14.94,73864.8,-1.87,-2.59,-2.63,0,*54
1491336491.99,30124,14.94,73866.3,-1.87,-2.63,-2.63,0,*5A
1491336493.27,30125,14.94,73866.8,-1.87,-2.63,-2.63,0,*5B
1491336494.51,30126,14.94,73868.3,-1.89,-2.67,-2.67,0,*56
1491336495.79,30127,14.94,73868.0,-1.87,-2.63,-2.63,0,*59
1491336497.06,30128,14.94,73864.0,-1.87,-2.63,-2.63,0,*56
1491336498.31,30129,14.94,73862.3,-1.89,-2.67,-2.71,0,*5E
1491336499.58,30130,14.94,73862.0,-1.87,-2.63,-2.67,0,*5B
1491336500.84,30131,14.94,73864.0,-1.87,-2.59,-2.59,0,*5E
1491336502.09,30132,14.94,73866.8,-1.89,-2.67,-2.67,0,*53
1491336503.36,30133,14.94,73870.0,-1.87,-2.63,-2.63,0,*5C
1491336504.64,30134,14.94,73864.3,-1.87,-2.63,-2.63,0,*5B
1491336505.91,30135,14.94,73866.5,-1.87,-2.63,-2.63,0,*5A
1491336507.16,30136,14.94,73862.3,-1.89,-2.67,-2.71,0,*50
1491336508.43,30137,14.94,73864.0,-1.87,-2.63,-2.67,0,*5C
1491336509.7,30138,14.94,73870.0,-1.87,-2.63,-2.67,0,*53
1491336510.95,30139,14.94,73864.5,-1.89,-2.67,-2.71,0,*5F
1491336512.22,30140,14.94,73870.0,-1.87,-2.63,-2.75,0,*5F
1491336513.5,30141,14.94,73864.5,-1.87,-2.63,-2.67,0,*5D
1491336514.77,30142,14.94,73862.0,-1.87,-2.63,-2.67,0,*5E